Flag for U.S.A. Weather past 2 weeks in Albuquerque, New Mexico, U.S.A.

Now
71 °F

Passing clouds.


Feels Like: 77 °F
Forecast: 64 / 93 °F
Wind: 3 mph from Southeast

Location: Albuquerque International Airport

Current Time: Jul 28, 2015 at 8:12:26 AM

Latest Report: Jul 28, 2015 at 6:52 AM


Visibility: 10 mi

Pressure: 29.85 "Hg (25.06 "Hg at 1510m altitude)

Humidity: 51%

Dew point: 52 °F

Location of AlbuquerqueLocation

Historic Weather in Albuquerque — Graph

°F

Albuquerque temperature yesterday

Maximum temperature yesterday: 91 °F (at 4:52 PM)
Minimum temperature yesterday: 64 °F (at 4:52 AM)
Average temperature yesterday: 78 °F

Past Weeks' High & Low Weather Summary

 TemperatureHumidityPressure
High94 °F (Jul 25, 4:52 PM)87% (Jul 20, 6:52 AM)30.21 "Hg (Jul 20, 6:52 AM)
Low63 °F (Jul 19, 6:52 AM)14% (Jul 22, 3:52 PM)29.71 "Hg (Jul 26, 5:52 PM)
Average77 °F45%29.89 "Hg
* Reported Jul 13 6:52 AM — Jul 28 6:52 AM, Albuquerque, Weather by CustomWeather, © 2015

Note: Actual official high and low records may vary slightly from our data, if they occured in-between our weather recording intervals... More about our weather records

Advertising

Albuquerque weather history for previous 24 hours

 ConditionsComfort  
Time TempWeatherWind HumidityBarometerVisibility
6:52 AM
Tue, Jul 28
71 °FPassing clouds.3 mph51%29.85 "Hg10 mi
5:52 AM73 °FPassing clouds.6 mph48%29.83 "Hg10 mi
4:52 AM77 °FPassing clouds.12 mph40%29.79 "Hg10 mi
3:52 AM76 °FPassing clouds.6 mph42%29.79 "Hg10 mi
2:52 AM78 °FPassing clouds.9 mph37%29.78 "Hg10 mi
1:52 AM79 °FPassing clouds.8 mph35%29.79 "Hg10 mi
12:52 AM76 °FPassing clouds.7 mph40%29.80 "Hg10 mi
11:52 PM
Mon, Jul 27
78 °FPassing clouds.5 mph37%29.80 "Hg10 mi
10:52 PM81 °FPassing clouds.5 mph34%29.80 "Hg10 mi
9:52 PM82 °FPassing clouds.8 mph35%29.80 "Hg10 mi
8:52 PM86 °FPartly sunny.9 mph28%29.78 "Hg10 mi
7:52 PM88 °FBroken clouds.10 mph25%29.76 "Hg10 mi
6:52 PM90 °FBroken clouds.13 mph21%29.74 "Hg10 mi
5:52 PM90 °FBroken clouds.No wind19%29.74 "Hg10 mi
4:52 PM91 °FBroken clouds.10 mph20%29.76 "Hg10 mi
2:52 PM90 °FScattered clouds.5 mph25%29.80 "Hg10 mi
1:52 PM86 °FScattered clouds.6 mph30%29.84 "Hg10 mi
12:52 PM84 °FPassing clouds.8 mph35%29.85 "Hg10 mi
11:52 AM82 °FPassing clouds.7 mph46%29.87 "Hg10 mi
10:52 AM79 °FPassing clouds.No wind45%29.91 "Hg10 mi
9:52 AM75 °FPassing clouds.No wind55%29.92 "Hg10 mi
8:52 AM70 °FPassing clouds.5 mph66%29.93 "Hg10 mi
Weather by CustomWeather, © 2015

See weather overviewHow to use our weather pages